Content
SEND FEEDBACK

Daily
Averages
Monthly
Summary
Sweden

SKOVDE, SWEDEN


Home > Europe > Sweden
Elevation: 344 feet     Latitude: 58 27N     Longitude: 013 58E

WEATHER
 
SELECT A DAY
Number of Records: 56,465;   Date Range: 2/20/97 - 9/1/14
 
SHARE

PRINT THIS DATA

[ ← Previous Day ]
WEATHER ALMANAC - JANUARY 3, 2013
[ Next Day → ]
[ °C ]   °F
Weather ElementAverageHighLow
Temperature39.8 °F44.6 °F (12:50 pm)33.8 °F (12:50 am)
Dewpoint36.6 °F42.8 °F (12:50 pm)32 °F (12:50 am)
Humidity89 %100 % (1:20 am)76 % (3:50 pm)
Barometer29.67 in29.83 in (10:20 pm)29.53 in (12:50 pm)
Wind Speed10.1 mph13.8 mph (4:50 pm)
Wind Gust26.5 mph (6:50 pm)
Weather ElementAverage
Visibility5.9 mi
Wind DirectionWSW (235.2 °)

Weather ElementTotal
Precipitation---
Heating Degree Days25.8 (Base 65)
Averaged from 46 records on January 3, 2013
WEATHER CONDITIONS BREAKOUT
WIND DIRECTION BREAKOUT
WEATHER BY HOUR - JANUARY 3, 2013
[ °C ]   °F
Local TimeTemperatureDewpointHumidityBarometerVisibilityWind DirectionWind SpeedGust SpeedPrecipitationEventsConditions
12:50 AM33.8 °F32.0 °F93 %29.77 in6.2 miSSW (200°)5.8 mph
1:20 AM33.8 °F33.8 °F100 %29.77 in6.2 miSSW (210°)5.8 mph
1:50 AM35.6 °F33.8 °F93 %29.77 in6.2 miSW (220°)6.9 mph
2:20 AM35.6 °F33.8 °F93 %29.77 in6.2 miSSW (210°)8.1 mphPartly Cloudy
2:50 AM35.6 °F35.6 °F100 %29.74 in6.2 miSSW (200°)8.1 mphMostly Cloudy
3:20 AM37.4 °F35.6 °F93 %29.74 in6.2 miSouth (190°)5.8 mphOvercast
3:50 AM37.4 °F37.4 °F100 %29.71 in6.2 miSouth (170°)4.6 mphOvercast
4:20 AM37.4 °F37.4 °F100 %29.71 in3.1 miSW (230°)6.9 mphDrizzle
4:50 AM37.4 °F37.4 °F100 %29.71 in3.1 miSSW (210°)6.9 mphRainLight Rain
5:20 AM37.4 °F37.4 °F100 %29.68 in6.2 miSSW (200°)6.9 mphRainLight Rain
5:50 AM37.4 °F35.6 °F93 %29.68 in6.2 miSW (220°)11.5 mphRainLight Rain
6:20 AM35.6 °F33.8 °F93 %29.65 in6.2 miSouth (180°)8.1 mphRainLight Rain
6:50 AM33.8 °F33.8 °F100 %29.65 in6.2 miSouth (170°)9.2 mphRainLight Rain
7:20 AM33.8 °F33.8 °F100 %29.62 in6.2 miSouth (180°)9.2 mphRainLight Rain
7:50 AM33.8 °F33.8 °F100 %29.62 in6.2 miSouth (180°)8.1 mphMostly Cloudy
8:20 AM33.8 °F33.8 °F100 %29.59 inSouth (170°)8.1 mphRainLight Rain
8:50 AM35.6 °F35.6 °F100 %29.59 in6.2 miSouth (180°)9.2 mphOvercast
9:20 AM35.6 °F35.6 °F100 %29.59 in1.6 miSouth (180°)8.1 mphOvercast
9:50 AM37.4 °F37.4 °F100 %29.56 in3.7 miSW (220°)8.1 mphOvercast
10:20 AM39.2 °F39.2 °F100 %29.56 in6.2 miWSW (240°)11.5 mphOvercast
10:50 AM41.0 °F41.0 °F100 %29.56 in6.2 miWSW (250°)11.5 mphOvercast
11:20 AM41.0 °F41.0 °F100 %29.56 in6.2 miWSW (240°)11.5 mph23.0 mphOvercast
11:50 AM42.8 °F41.0 °F93 %29.56 in6.2 miWSW (240°)11.5 mphMostly Cloudy
12:20 PM42.8 °F41.0 °F93 %29.56 in6.2 miWSW (240°)12.7 mphMostly Cloudy
12:50 PM44.6 °F42.8 °F93 %29.53 in6.2 miWSW (250°)12.7 mphMostly Cloudy
1:20 PM44.6 °F42.8 °F93 %29.53 in6.2 miWSW (250°)12.7 mph
1:50 PM44.6 °F41.0 °F87 %29.53 in6.2 miWest (260°)12.7 mph
2:20 PM44.6 °F41.0 °F87 %29.56 in6.2 miWest (260°)12.7 mph
2:50 PM44.6 °F39.2 °F81 %29.56 in6.2 miWest (260°)11.5 mph24.2 mph
3:50 PM44.6 °F37.4 °F76 %29.59 in6.2 miWest (260°)12.7 mph25.3 mph
4:20 PM44.6 °F37.4 °F76 %29.62 in6.2 miWest (270°)12.7 mph
4:50 PM44.6 °F37.4 °F76 %29.62 in6.2 miWest (270°)13.8 mph
5:20 PM44.6 °F37.4 °F76 %29.65 in6.2 miWest (270°)13.8 mph
5:50 PM42.8 °F37.4 °F81 %29.65 in6.2 miWest (270°)13.8 mph
6:20 PM42.8 °F35.6 °F76 %29.68 in6.2 miWest (270°)11.5 mph
6:50 PM42.8 °F35.6 °F76 %29.71 in6.2 miWest (280°)11.5 mph26.5 mph
7:20 PM42.8 °F35.6 °F76 %29.71 in6.2 miWest (280°)13.8 mph
7:50 PM42.8 °F35.6 °F76 %29.74 in6.2 miWest (270°)13.8 mph26.5 mph
8:20 PM42.8 °F35.6 °F76 %29.77 in6.2 miWest (280°)11.5 mph
8:50 PM41.0 °F35.6 °F81 %29.74 in6.2 miWNW (290°)10.4 mph
9:20 PM42.8 °F35.6 °F76 %29.77 in6.2 miWest (280°)9.2 mph
9:50 PM41.0 °F35.6 °F81 %29.80 in6.2 miWest (270°)9.2 mph
10:20 PM41.0 °F33.8 °F76 %29.83 in6.2 miWest (260°)11.5 mph
10:50 PM41.0 °F33.8 °F76 %29.83 in6.2 miWest (270°)9.2 mph
11:20 PM41.0 °F33.8 °F76 %29.83 in6.2 miWest (260°)9.2 mph
11:50 PM41.0 °F33.8 °F76 %29.83 in6.2 miWest (260°)9.2 mph21.9 mph
Hourly data recorded from ESGR, located miles away from Skovde, Sweden







STORIES FROM OUR PARTNERS